Tracking 19176 objects as of 26-May-2018
HD Live streaming from Space Station
objects crossing your sky now

APRIZESAT 6

Track APRIZESAT 6 now!
10-day predictions
APRIZESAT 6 is classified as:


NORAD ID: 37793
Int'l Code: 2011-044F
Perigee: 626.9 km
Apogee: 694.7 km
Inclination: 98.3 °
Period: 97.8 minutes
Semi major axis: 7031 km
RCS: 0.203 m2 (medium)
Launch date: August 17, 2011
Source: United States (US)
Launch site: Orenburg, Russia (OREN)
aabbcc
Your satellite tracking list
Your tracking list is empty




NASA's NSSDC Master Catalog

Two Line Element Set (TLE):
1 37793U 11044F   18145.96386876 +.00000051 +00000-0 +16557-4 0  9995
2 37793 098.3354 286.9923 0048204 068.7170 043.6538 14.72310464363552
Source of the keplerian elements: AFSPC